San Diego, CA

10:31 PM PST on February 20, 2017 (GMT -0800)
North Island Naval Air Station

Weather History for KNZY - December, 2012

Change the Weather History Date:

Sunday, December 2, 2012

  Actual Average Record
Temperature  
Mean Temperature 66 °F -  
Max Temperature 69 °F 62 °F 82 °F (2006)
Min Temperature 61 °F 47 °F 39 °F (2004)
Growing Degree Days 16 (Base 50)    
Moisture  
Dew Point 57 °F    
Average Humidity 75    
Maximum Humidity 84    
Minimum Humidity 61    
Precipitation  
Precipitation 0.00 in - - ()
Sea Level Pressure  
Sea Level Pressure 30.11 in    
Wind  
Wind Speed 5 mph (NNW)    
Max Wind Speed 16 mph    
Max Gust Speed -    
Visibility 9 miles    
Events      
Averages and records for this station are not official NWS values.
T = Trace of Precipitation, MM = Missing Value Source: NWS Daily Summary

Daily Weather History Graph

Daily Weather History Graph

Search for Another Location

Airport or City:

Trip Planner

Search our weather history database for the weather conditions in past years. The results will help you decide how hot, cold, wet, or windy it might be!

Date:

Astronomy

Dec. 02, 2012 Rise Set
Actual Time 6:34 AM PST 4:42 PM PST
Civil Twilight 6:07 AM PST 5:09 PM PST
Nautical Twilight 5:36 AM PST 5:39 PM PST
Astronomical Twilight 5:07 AM PST 6:09 PM PST
Moon 8:28 PM PST (12/2) 9:31 AM PST (12/2)
Length of Visible Light 11h 02m
Length of Day
10h 08m
Waning Gibbous, 85% of the Moon is Illuminated
Dec 2
Waning Gibbous
Dec 6
Last Quarter
Dec 13
New
Dec 19
First Quarter
Dec 28
Full

Hourly Weather History & Observations

Time (PST) Temp. Dew Point Humidity Pressure Visibility Wind Dir Wind Speed Gust Speed Precip Events Conditions
12:52 AM 64.0 °F 57.9 °F 80% 30.11 in 9.0 mi NNE 3.5 mph - N/A   Mostly Cloudy
1:52 AM 63.0 °F 57.9 °F 84% 30.10 in 9.0 mi Calm Calm - N/A   Mostly Cloudy
2:13 AM 62.6 °F 57.2 °F 82% 30.09 in 9.0 mi WNW 3.5 mph - N/A   Mostly Cloudy
2:52 AM 64.0 °F 57.9 °F 80% 30.09 in 8.0 mi North 4.6 mph - N/A   Overcast
3:52 AM 64.0 °F 57.9 °F 80% 30.09 in 8.0 mi NW 3.5 mph - N/A   Overcast
4:12 AM 64.4 °F 57.2 °F 77% 30.09 in 7.0 mi NNW 4.6 mph - N/A   Overcast
4:52 AM 64.0 °F 59.0 °F 84% 30.09 in 6.0 mi Calm Calm - N/A   Overcast
5:52 AM 64.0 °F 57.9 °F 80% 30.10 in 5.0 mi NNW 5.8 mph - 0.00 in   Light Drizzle
6:18 AM 64.4 °F 59.0 °F 83% 30.11 in 6.0 mi North 5.8 mph - 0.00 in   Overcast
6:52 AM 64.0 °F 57.9 °F 80% 30.13 in 6.0 mi North 10.4 mph - 0.00 in   Overcast
7:52 AM 64.9 °F 57.9 °F 78% 30.13 in 8.0 mi North 4.6 mph - N/A   Mostly Cloudy
8:52 AM 66.0 °F 57.0 °F 73% 30.13 in 9.0 mi NNE 4.6 mph - N/A   Mostly Cloudy
9:52 AM 66.9 °F 55.0 °F 66% 30.15 in 9.0 mi North 8.1 mph - N/A   Overcast
10:52 AM 68.0 °F 55.9 °F 65% 30.14 in 10.0 mi North 9.2 mph - N/A   Mostly Cloudy
11:52 AM 68.0 °F 55.9 °F 65% 30.13 in 10.0 mi NNW 12.7 mph - N/A   Mostly Cloudy
12:52 PM 68.0 °F 57.0 °F 68% 30.12 in 10.0 mi NNW 12.7 mph - N/A   Mostly Cloudy
1:12 PM 68.0 °F 55.4 °F 64% 30.10 in 10.0 mi NW 10.4 mph - N/A   Mostly Cloudy
1:52 PM 69.1 °F 55.9 °F 63% 30.09 in 10.0 mi NNE 3.5 mph - N/A   Scattered Clouds
2:52 PM 68.0 °F 54.0 °F 61% 30.08 in 10.0 mi West 10.4 mph - N/A   Scattered Clouds
3:52 PM 66.9 °F 54.0 °F 63% 30.07 in 10.0 mi West 5.8 mph - N/A   Scattered Clouds
4:52 PM 64.9 °F 55.0 °F 70% 30.11 in 10.0 mi WNW 16.1 mph - N/A   Mostly Cloudy
5:52 PM 64.0 °F 57.9 °F 80% 30.11 in 10.0 mi NW 8.1 mph - N/A   Mostly Cloudy
6:52 PM 64.0 °F 57.0 °F 78% 30.12 in 10.0 mi NNW 5.8 mph - N/A   Mostly Cloudy
7:52 PM 64.0 °F 57.9 °F 80% 30.12 in 10.0 mi Calm Calm - N/A   Overcast
8:52 PM 64.0 °F 57.0 °F 78% 30.13 in 10.0 mi Calm Calm - N/A   Overcast
9:52 PM 63.0 °F 57.0 °F 81% 30.12 in 8.0 mi West 3.5 mph - N/A   Mostly Cloudy
10:52 PM 63.0 °F 57.0 °F 81% 30.13 in 7.0 mi North 3.5 mph - N/A   Mostly Cloudy
11:00 PM - - N/A% - - North - - N/A   Unknown
11:52 PM 61.0 °F 55.9 °F 83% 30.12 in 8.0 mi West 3.5 mph - N/A   Mostly Cloudy